Location: Unspecified
(0.0000°N, 0.0000°E)
Time: 09:58:04
(UTC+00:00)

deb Briz - Pass Details

Date: 18 February 2026
Orbit: 1949 x 2166 km, 64.8° (Epoch: 9 March)

Event Time Altitude Azimuth Distance (km) Brightness Sun altitude
Rises 04:08:46 0° 360° (N) 5,568 ? -30.6°
Reaches altitude 10° 04:12:46 10° 10° (N) 4,596 ? -29.6°
Maximum altitude 04:23:03 33° 69° (ENE) 3,187 ? -27.1°
Drops below altitude 10° 04:33:26 10° 127° (SE) 4,685 ? -24.6°
Sets 04:37:27 0° 136° (SE) 5,690 ? -23.6°
